Time,TemperatureF,DewpointF,PressureIn,WindDirection,WindDirectionDegrees,WindSpeedMPH,WindSpeedGustMPH,Humidity,HourlyPrecipIn,Conditions,Clouds,dailyrainin,SolarRadiationWatts/m^2,SoftwareType,DateUTC
2013-10-12 00:22:00,45.0,32.0,-100.00,SSE,165,15.0,34.0,61,0.00,,,0.04,0.000000,,2013-10-12 08:22:00,
2013-10-12 00:32:00,45.0,32.0,-100.00,SSE,165,15.0,34.0,61,0.00,,,0.04,0.000000,,2013-10-12 08:32:00,
2013-10-12 00:42:00,45.0,32.0,-100.00,SSE,165,15.0,34.0,61,0.00,,,0.04,0.000000,,2013-10-12 08:42:00,
2013-10-12 00:51:00,45.0,32.0,-100.00,SSE,165,15.0,34.0,61,0.00,,,0.04,0.000000,,2013-10-12 08:51:00,
2013-10-12 01:21:00,45.0,35.0,-100.00,ESE,107,15.0,30.0,67,0.01,,,0.04,0.000000,,2013-10-12 09:21:00,
2013-10-12 01:33:00,45.0,35.0,-100.00,ESE,107,15.0,30.0,67,0.01,,,0.04,0.000000,,2013-10-12 09:33:00,
2013-10-12 01:43:00,45.0,35.0,-100.00,ESE,107,15.0,30.0,67,0.01,,,0.04,0.000000,,2013-10-12 09:43:00,
2013-10-12 01:53:00,45.0,35.0,-100.00,ESE,107,15.0,30.0,67,0.01,,,0.04,0.000000,,2013-10-12 09:53:00,
2013-10-12 02:23:00,45.0,33.0,-100.00,SE,124,12.0,30.0,62,0.00,,,0.04,0.000000,,2013-10-12 10:23:00,
2013-10-12 02:32:00,45.0,33.0,-100.00,SE,124,12.0,30.0,62,0.00,,,0.04,0.000000,,2013-10-12 10:32:00,
2013-10-12 02:42:00,45.0,33.0,-100.00,SE,124,12.0,30.0,62,0.00,,,0.04,0.000000,,2013-10-12 10:42:00,
2013-10-12 02:52:00,45.0,33.0,-100.00,SE,124,12.0,30.0,62,0.00,,,0.04,0.000000,,2013-10-12 10:52:00,
2013-10-12 03:22:00,45.0,33.0,-100.00,ESE,122,13.0,39.0,63,0.00,,,0.04,0.000000,,2013-10-12 11:22:00,
2013-10-12 03:33:00,45.0,33.0,-100.00,ESE,122,13.0,39.0,63,0.00,,,0.04,0.000000,,2013-10-12 11:33:00,
2013-10-12 03:42:00,45.0,33.0,-100.00,ESE,122,13.0,39.0,63,0.00,,,0.04,0.000000,,2013-10-12 11:42:00,
2013-10-12 03:52:00,45.0,33.0,-100.00,ESE,122,13.0,39.0,63,0.00,,,0.04,0.000000,,2013-10-12 11:52:00,
2013-10-12 04:22:00,46.0,35.0,-100.00,SE,134,14.0,35.0,66,0.01,,,0.04,0.000000,,2013-10-12 12:22:00,
2013-10-12 04:32:00,46.0,35.0,-100.00,SE,134,14.0,35.0,66,0.01,,,0.04,0.000000,,2013-10-12 12:32:00,
2013-10-12 04:42:00,46.0,35.0,-100.00,SE,134,14.0,35.0,66,0.01,,,0.04,0.000000,,2013-10-12 12:42:00,
2013-10-12 04:52:00,46.0,35.0,-100.00,SE,134,14.0,35.0,66,0.01,,,0.04,0.000000,,2013-10-12 12:52:00,
2013-10-12 05:21:00,45.0,34.0,-100.00,SE,131,13.0,32.0,66,0.00,,,0.04,0.000000,,2013-10-12 13:21:00,
2013-10-12 05:31:00,45.0,34.0,-100.00,SE,131,13.0,32.0,66,0.00,,,0.04,0.000000,,2013-10-12 13:31:00,
2013-10-12 05:42:00,45.0,34.0,-100.00,SE,131,13.0,32.0,66,0.00,,,0.04,0.000000,,2013-10-12 13:42:00,
2013-10-12 05:52:00,45.0,34.0,-100.00,SE,131,13.0,32.0,66,0.00,,,0.04,0.000000,,2013-10-12 13:52:00,
2013-10-12 06:21:00,46.0,34.0,-100.00,ESE,110,15.0,34.0,63,0.00,,,0.04,0.000000,,2013-10-12 14:21:00,
2013-10-12 06:32:00,46.0,34.0,-100.00,ESE,110,15.0,34.0,63,0.00,,,0.04,0.000000,,2013-10-12 14:32:00,
2013-10-12 06:42:00,46.0,34.0,-100.00,ESE,110,15.0,34.0,63,0.00,,,0.04,0.000000,,2013-10-12 14:42:00,
2013-10-12 06:52:00,46.0,34.0,-100.00,ESE,110,15.0,34.0,63,0.00,,,0.04,0.000000,,2013-10-12 14:52:00,
2013-10-12 07:22:00,45.0,34.0,-100.00,SSE,152,16.0,34.0,66,0.00,,,0.03,0.000000,,2013-10-12 15:22:00,
2013-10-12 07:33:00,45.0,34.0,-100.00,SSE,152,16.0,34.0,66,0.00,,,0.03,0.000000,,2013-10-12 15:33:00,
2013-10-12 07:43:00,45.0,34.0,-100.00,SSE,152,16.0,34.0,66,0.00,,,0.03,0.000000,,2013-10-12 15:43:00,
2013-10-12 07:53:00,45.0,34.0,-100.00,SSE,152,16.0,34.0,66,0.00,,,0.03,0.000000,,2013-10-12 15:53:00,
2013-10-12 08:23:00,46.0,35.0,-100.00,SE,136,13.0,36.0,66,0.01,,,0.04,0.000000,,2013-10-12 16:23:00,
2013-10-12 08:33:00,46.0,35.0,-100.00,SE,136,13.0,36.0,66,0.01,,,0.04,0.000000,,2013-10-12 16:33:00,
2013-10-12 08:43:00,46.0,35.0,-100.00,SE,136,13.0,36.0,66,0.01,,,0.04,0.000000,,2013-10-12 16:43:00,
2013-10-12 08:53:00,46.0,35.0,-100.00,SE,136,13.0,36.0,66,0.01,,,0.04,0.000000,,2013-10-12 16:53:00,
2013-10-12 09:23:00,47.0,33.0,-100.00,ESE,123,15.0,33.0,59,0.00,,,-99.99,2.000000,,2013-10-12 17:23:00,
2013-10-12 09:34:00,47.0,33.0,-100.00,ESE,123,15.0,33.0,59,0.00,,,-99.99,2.000000,,2013-10-12 17:34:00,
2013-10-12 09:42:00,47.0,33.0,-100.00,ESE,123,15.0,33.0,59,0.00,,,-99.99,2.000000,,2013-10-12 17:42:00,
2013-10-12 09:53:00,47.0,33.0,-100.00,ESE,123,15.0,33.0,59,0.00,,,-99.99,2.000000,,2013-10-12 17:53:00,
2013-10-12 10:22:00,48.0,33.0,-100.00,SE,137,16.0,40.0,56,0.00,,,0.03,37.000000,,2013-10-12 18:22:00,
2013-10-12 10:32:00,48.0,33.0,-100.00,SE,137,16.0,40.0,56,0.00,,,0.03,37.000000,,2013-10-12 18:32:00,
2013-10-12 10:42:00,48.0,33.0,-100.00,SE,137,16.0,40.0,56,0.00,,,0.03,37.000000,,2013-10-12 18:42:00,
2013-10-12 10:52:00,48.0,33.0,-100.00,SE,137,16.0,40.0,56,0.00,,,0.03,37.000000,,2013-10-12 18:52:00,
2013-10-12 11:22:00,48.0,32.0,-100.00,SE,132,12.0,39.0,54,0.00,,,-99.99,59.000000,,2013-10-12 19:22:00,
2013-10-12 11:32:00,48.0,32.0,-100.00,SE,132,12.0,39.0,54,0.00,,,-99.99,59.000000,,2013-10-12 19:32:00,
2013-10-12 11:42:00,48.0,32.0,-100.00,SE,132,12.0,39.0,54,0.00,,,-99.99,59.000000,,2013-10-12 19:42:00,
2013-10-12 11:52:00,48.0,32.0,-100.00,SE,132,12.0,39.0,54,0.00,,,-99.99,59.000000,,2013-10-12 19:52:00,
2013-10-12 12:22:00,48.0,32.0,-100.00,ESE,121,12.0,38.0,54,0.00,,,0.03,61.000000,,2013-10-12 20:22:00,
2013-10-12 12:32:00,48.0,32.0,-100.00,ESE,121,12.0,38.0,54,0.00,,,0.03,61.000000,,2013-10-12 20:32:00,
2013-10-12 12:42:00,48.0,32.0,-100.00,ESE,121,12.0,38.0,54,0.00,,,0.03,61.000000,,2013-10-12 20:42:00,
2013-10-12 12:52:00,48.0,32.0,-100.00,ESE,121,12.0,38.0,54,0.00,,,0.03,61.000000,,2013-10-12 20:52:00,
2013-10-12 13:22:00,49.0,34.0,-100.00,SE,144,14.0,37.0,55,0.00,,,0.03,116.000000,,2013-10-12 21:22:00,
2013-10-12 13:34:00,49.0,34.0,-100.00,SE,144,14.0,37.0,55,0.00,,,0.03,116.000000,,2013-10-12 21:34:00,
2013-10-12 13:43:00,49.0,34.0,-100.00,SE,144,14.0,37.0,55,0.00,,,0.03,116.000000,,2013-10-12 21:43:00,
2013-10-12 13:54:00,49.0,34.0,-100.00,SE,144,14.0,37.0,55,0.00,,,0.03,116.000000,,2013-10-12 21:54:00,
2013-10-12 14:24:00,50.0,33.0,-100.00,SSE,164,12.0,32.0,51,0.00,,,-99.99,202.000000,,2013-10-12 22:24:00,
2013-10-12 14:33:00,50.0,33.0,-100.00,SSE,164,12.0,32.0,51,0.00,,,-99.99,202.000000,,2013-10-12 22:33:00,
2013-10-12 14:43:00,50.0,33.0,-100.00,SSE,164,12.0,32.0,51,0.00,,,-99.99,202.000000,,2013-10-12 22:43:00,
2013-10-12 14:54:00,50.0,33.0,-100.00,SSE,164,12.0,32.0,51,0.00,,,-99.99,202.000000,,2013-10-12 22:54:00,
2013-10-12 15:22:00,50.0,33.0,-100.00,SSE,147,12.0,26.0,52,0.00,,,0.03,179.000000,,2013-10-12 23:22:00,
2013-10-12 15:33:00,50.0,33.0,-100.00,SSE,147,12.0,26.0,52,0.00,,,0.03,179.000000,,2013-10-12 23:33:00,
2013-10-12 15:42:00,50.0,33.0,-100.00,SSE,147,12.0,26.0,52,0.00,,,0.03,179.000000,,2013-10-12 23:42:00,
2013-10-12 15:52:00,50.0,33.0,-100.00,SSE,147,12.0,26.0,52,0.00,,,0.03,179.000000,,2013-10-12 23:52:00,
2013-10-12 16:21:00,50.0,32.0,-100.00,SSE,156,9.0,21.0,50,0.00,,,0.03,168.000000,,2013-10-13 00:21:00,
2013-10-12 16:32:00,50.0,32.0,-100.00,SSE,156,9.0,21.0,50,0.00,,,0.03,168.000000,,2013-10-13 00:32:00,
2013-10-12 16:42:00,50.0,32.0,-100.00,SSE,156,9.0,21.0,50,0.00,,,0.03,168.000000,,2013-10-13 00:42:00,
2013-10-12 16:52:00,50.0,32.0,-100.00,SSE,156,9.0,21.0,50,0.00,,,0.03,168.000000,,2013-10-13 00:52:00,
2013-10-12 17:21:00,48.0,31.0,-100.00,SE,134,7.0,24.0,52,0.00,,,-99.99,90.000000,,2013-10-13 01:21:00,
2013-10-12 17:32:00,48.0,31.0,-100.00,SE,134,7.0,24.0,52,0.00,,,-99.99,90.000000,,2013-10-13 01:32:00,
2013-10-12 17:42:00,48.0,31.0,-100.00,SE,134,7.0,24.0,52,0.00,,,-99.99,90.000000,,2013-10-13 01:42:00,
2013-10-12 17:52:00,48.0,31.0,-100.00,SE,134,7.0,24.0,52,0.00,,,-99.99,90.000000,,2013-10-13 01:52:00,
2013-10-12 18:22:00,48.0,32.0,-100.00,NE,48,4.0,22.0,53,0.00,,,0.03,38.000000,,2013-10-13 02:22:00,
2013-10-12 18:32:00,48.0,32.0,-100.00,NE,48,4.0,22.0,53,0.00,,,0.03,38.000000,,2013-10-13 02:32:00,
2013-10-12 18:42:00,48.0,32.0,-100.00,NE,48,4.0,22.0,53,0.00,,,0.03,38.000000,,2013-10-13 02:42:00,
2013-10-12 18:52:00,48.0,32.0,-100.00,NE,48,4.0,22.0,53,0.00,,,0.03,38.000000,,2013-10-13 02:52:00,
2013-10-12 19:22:00,47.0,31.0,-100.00,SE,143,7.0,23.0,54,0.00,,,0.03,8.000000,,2013-10-13 03:22:00,
2013-10-12 19:34:00,47.0,31.0,-100.00,SE,143,7.0,23.0,54,0.00,,,0.03,8.000000,,2013-10-13 03:34:00,
2013-10-12 19:45:00,47.0,31.0,-100.00,SE,143,7.0,23.0,54,0.00,,,0.03,8.000000,,2013-10-13 03:45:00,
2013-10-12 19:54:00,47.0,31.0,-100.00,SE,143,7.0,23.0,54,0.00,,,0.03,8.000000,,2013-10-13 03:54:00,
2013-10-12 20:23:00,46.0,32.0,-100.00,NW,323,4.0,19.0,59,0.00,,,0.03,0.000000,,2013-10-13 04:23:00,
2013-10-12 20:33:00,46.0,32.0,-100.00,NW,323,4.0,19.0,59,0.00,,,0.03,0.000000,,2013-10-13 04:33:00,
2013-10-12 20:43:00,46.0,32.0,-100.00,NW,323,4.0,19.0,59,0.00,,,0.03,0.000000,,2013-10-13 04:43:00,
2013-10-12 20:53:00,46.0,32.0,-100.00,NW,323,4.0,19.0,59,0.00,,,0.03,0.000000,,2013-10-13 04:53:00,
2013-10-12 21:23:00,46.0,30.0,-100.00,NNW,339,4.0,14.0,54,0.00,,,0.03,0.000000,,2013-10-13 05:23:00,
2013-10-12 21:34:00,46.0,30.0,-100.00,NNW,339,4.0,14.0,54,0.00,,,0.03,0.000000,,2013-10-13 05:34:00,
2013-10-12 21:43:00,46.0,30.0,-100.00,NNW,339,4.0,14.0,54,0.00,,,0.03,0.000000,,2013-10-13 05:43:00,
2013-10-12 21:52:00,46.0,30.0,-100.00,NNW,339,4.0,14.0,54,0.00,,,0.03,0.000000,,2013-10-13 05:52:00,
2013-10-12 22:22:00,45.0,29.0,-100.00,NE,36,3.0,22.0,54,0.00,,,0.03,0.000000,,2013-10-13 06:22:00,
2013-10-12 22:32:00,45.0,29.0,-100.00,NE,36,3.0,22.0,54,0.00,,,0.03,0.000000,,2013-10-13 06:32:00,
2013-10-12 22:42:00,45.0,29.0,-100.00,NE,36,3.0,22.0,54,0.00,,,0.03,0.000000,,2013-10-13 06:42:00,
2013-10-12 22:52:00,45.0,29.0,-100.00,NE,36,3.0,22.0,54,0.00,,,0.03,0.000000,,2013-10-13 06:52:00,
2013-10-12 23:21:00,42.0,38.0,-100.00,NNE,22,6.0,12.0,84,0.00,,,0.03,0.000000,,2013-10-13 07:21:00,
2013-10-12 23:32:00,42.0,38.0,-100.00,NNE,22,6.0,12.0,84,0.00,,,0.03,0.000000,,2013-10-13 07:32:00,
2013-10-12 23:42:00,42.0,38.0,-100.00,NNE,22,6.0,12.0,84,0.00,,,0.03,0.000000,,2013-10-13 07:42:00,
2013-10-12 23:52:00,42.0,38.0,-100.00,NNE,22,6.0,12.0,84,0.00,,,0.03,0.000000,,2013-10-13 07:52:00,